TimeCST,TemperatureF,Dew PointF,Humidity,Sea Level PressureIn,VisibilityMPH,Wind Direction,Wind SpeedMPH,Gust SpeedMPH,PrecipitationIn,Events,Conditions,WindDirDegrees,DateUTC
12:15 AM,36.9,30.0,76,30.30,10.0,East,4.6,-,N/A,,Clear,100,2013-01-10 06:15:00
12:35 AM,36.7,30.2,77,30.30,10.0,ESE,4.6,-,N/A,,Clear,110,2013-01-10 06:35:00
12:55 AM,34.9,29.7,81,30.29,10.0,SE,4.6,-,N/A,,Clear,130,2013-01-10 06:55:00
2:15 AM,34.7,29.8,82,30.28,10.0,ESE,4.6,-,N/A,,Clear,110,2013-01-10 08:15:00
2:35 AM,33.3,28.9,84,30.27,10.0,SE,4.6,-,N/A,,Clear,130,2013-01-10 08:35:00
2:55 AM,30.7,28.9,93,30.27,10.0,SE,4.6,-,N/A,,Clear,130,2013-01-10 08:55:00
3:15 AM,31.8,28.8,88,30.27,10.0,ESE,3.5,-,N/A,,Clear,120,2013-01-10 09:15:00
3:35 AM,32.9,29.5,87,30.26,10.0,Calm,Calm,-,N/A,,Clear,0,2013-01-10 09:35:00
3:55 AM,31.8,28.4,87,30.25,10.0,Calm,Calm,-,N/A,,Clear,0,2013-01-10 09:55:00
4:15 AM,28.4,24.8,86,30.24,10.0,Calm,Calm,-,N/A,,Clear,0,2013-01-10 10:15:00
4:35 AM,24.8,24.1,97,30.23,10.0,Calm,Calm,-,N/A,,Clear,0,2013-01-10 10:35:00
4:55 AM,26.2,25.0,95,30.21,10.0,Calm,Calm,-,N/A,,Clear,0,2013-01-10 10:55:00
5:15 AM,29.7,27.1,90,30.21,10.0,Calm,Calm,-,N/A,,Clear,0,2013-01-10 11:15:00
5:35 AM,30.7,28.8,92,30.19,10.0,ESE,4.6,-,N/A,,Clear,110,2013-01-10 11:35:00
6:35 AM,33.4,29.3,85,30.15,10.0,ESE,8.1,-,N/A,,Clear,120,2013-01-10 12:35:00
6:55 AM,34.2,29.1,82,30.15,10.0,SE,8.1,-,N/A,,Clear,130,2013-01-10 12:55:00
7:15 AM,34.7,28.8,79,30.14,10.0,SE,8.1,-,N/A,,Clear,130,2013-01-10 13:15:00
7:35 AM,34.7,28.4,78,30.13,10.0,SE,8.1,-,N/A,,Clear,130,2013-01-10 13:35:00
7:55 AM,34.9,27.9,76,30.12,10.0,SE,8.1,-,N/A,,Clear,130,2013-01-10 13:55:00
8:35 AM,36.7,27.1,68,30.11,10.0,SE,9.2,-,N/A,,Clear,140,2013-01-10 14:35:00
9:15 AM,38.5,26.8,63,30.09,10.0,SE,13.8,17.3,N/A,,Overcast,130,2013-01-10 15:15:00
9:35 AM,38.8,26.6,61,30.08,10.0,SE,15.0,20.7,N/A,,Overcast,130,2013-01-10 15:35:00
9:55 AM,38.8,27.3,63,30.06,10.0,ESE,11.5,-,N/A,,Overcast,120,2013-01-10 15:55:00
10:15 AM,38.8,27.5,64,30.05,10.0,SE,12.7,17.3,N/A,,Overcast,130,2013-01-10 16:15:00
10:35 AM,39.0,27.7,64,30.04,10.0,ESE,15.0,-,N/A,,Overcast,120,2013-01-10 16:35:00
10:55 AM,39.2,28.4,65,30.02,10.0,SE,13.8,17.3,N/A,,Overcast,130,2013-01-10 16:55:00
11:15 AM,39.2,29.3,68,29.99,10.0,ESE,11.5,-,N/A,,Overcast,120,2013-01-10 17:15:00
11:35 AM,38.5,31.1,75,29.98,10.0,SE,10.4,-,N/A,,Light Drizzle,130,2013-01-10 17:35:00
11:55 AM,37.9,31.8,79,29.96,10.0,SE,9.2,-,N/A,,Overcast,140,2013-01-10 17:55:00
12:15 PM,37.4,32.5,83,29.94,7.0,SE,11.5,16.1,N/A,Rain,Light Rain,140,2013-01-10 18:15:00
12:35 PM,37.4,33.8,87,29.93,10.0,SSE,8.1,-,N/A,,Drizzle,150,2013-01-10 18:35:00
12:55 PM,37.0,34.0,89,29.92,10.0,SSE,8.1,-,N/A,Rain,Light Rain,150,2013-01-10 18:55:00
1:15 PM,36.7,34.3,91,29.90,7.0,SE,9.2,-,N/A,,Light Drizzle,140,2013-01-10 19:15:00
1:35 PM,36.5,35.6,97,29.90,4.0,SSE,6.9,-,N/A,,Overcast,150,2013-01-10 19:35:00
1:55 PM,36.1,35.8,99,29.89,2.5,SSE,9.2,-,N/A,,Overcast,150,2013-01-10 19:55:00
2:15 PM,36.5,36.3,99,29.88,5.0,SSE,8.1,-,0.01,Rain,Light Rain,150,2013-01-10 20:15:00
2:35 PM,36.5,36.5,100,29.87,4.0,SE,5.8,-,0.01,,Overcast,140,2013-01-10 20:35:00
2:55 PM,36.3,36.3,100,29.86,2.0,SE,5.8,-,0.01,,Overcast,130,2013-01-10 20:55:00
3:15 PM,36.7,36.7,100,29.84,3.0,ESE,8.1,-,N/A,,Overcast,120,2013-01-10 21:15:00
3:35 PM,36.5,36.5,100,29.83,4.0,ESE,8.1,-,N/A,,Overcast,120,2013-01-10 21:35:00
3:55 PM,36.3,36.3,100,29.83,3.0,SE,10.4,-,N/A,,Overcast,130,2013-01-10 21:55:00
4:15 PM,36.3,36.3,100,29.84,3.0,SE,9.2,-,N/A,,Overcast,130,2013-01-10 22:15:00
4:35 PM,36.5,36.5,100,29.82,2.0,SE,9.2,-,N/A,,Light Drizzle,130,2013-01-10 22:35:00
4:55 PM,36.5,36.5,100,29.81,1.0,SE,6.9,-,0.03,Rain,Light Rain,140,2013-01-10 22:55:00
5:15 PM,36.5,36.5,100,29.80,2.0,SE,8.1,-,N/A,,Overcast,140,2013-01-10 23:15:00
5:35 PM,36.5,36.5,100,29.81,5.0,SSE,5.8,-,N/A,,Overcast,160,2013-01-10 23:35:00
5:55 PM,36.5,36.5,100,29.78,4.0,SE,6.9,-,N/A,,Overcast,140,2013-01-10 23:55:00
6:15 PM,36.1,36.1,100,29.77,3.0,SE,6.9,-,N/A,,Overcast,140,2013-01-11 00:15:00
6:35 PM,36.1,36.1,100,29.77,3.0,SSE,6.9,-,N/A,,Overcast,150,2013-01-11 00:35:00
6:55 PM,36.0,36.0,100,29.77,2.5,SE,6.9,-,N/A,,Overcast,140,2013-01-11 00:55:00
7:15 PM,36.0,36.0,100,29.76,1.5,SE,9.2,-,N/A,,Overcast,140,2013-01-11 01:15:00
7:35 PM,36.0,36.0,100,29.75,0.8,SSE,5.8,-,N/A,,Overcast,150,2013-01-11 01:35:00
7:55 PM,35.8,35.8,100,29.75,0.5,South,5.8,-,N/A,Fog,Fog,170,2013-01-11 01:55:00
8:15 PM,35.6,35.6,100,29.76,0.5,South,5.8,-,N/A,Fog,Fog,170,2013-01-11 02:15:00
8:35 PM,35.6,35.6,100,29.76,0.8,South,8.1,-,N/A,,Overcast,170,2013-01-11 02:35:00
8:55 PM,35.8,35.8,100,29.75,0.8,South,8.1,-,N/A,,Overcast,170,2013-01-11 02:55:00
9:15 PM,36.0,36.0,100,29.73,1.8,SSE,8.1,-,N/A,,Overcast,160,2013-01-11 03:15:00
9:35 PM,35.8,35.8,100,29.73,2.5,SSE,6.9,-,N/A,,Overcast,160,2013-01-11 03:35:00
9:55 PM,36.3,36.3,100,29.72,2.5,SSE,5.8,-,N/A,,Overcast,160,2013-01-11 03:55:00
10:15 PM,35.8,35.8,100,29.70,2.0,SE,5.8,-,N/A,,Overcast,140,2013-01-11 04:15:00
10:35 PM,35.8,35.8,100,29.70,1.5,SSE,3.5,-,N/A,,Overcast,150,2013-01-11 04:35:00
10:55 PM,35.8,35.8,100,29.69,1.0,Calm,Calm,-,N/A,,Overcast,0,2013-01-11 04:55:00
11:15 PM,35.6,35.6,100,29.67,0.8,SSE,3.5,-,N/A,,Overcast,160,2013-01-11 05:15:00
11:35 PM,35.6,35.6,100,29.68,0.5,SE,4.6,-,N/A,Fog,Fog,140,2013-01-11 05:35:00
11:55 PM,35.6,35.6,100,29.68,0.5,SE,5.8,-,N/A,Fog,Fog,130,2013-01-11 05:55:00